Satellite: NOAA-11 Catalog number: 19531 Epoch time: 13157.14991766 Element set: 385 Inclination: 098.7111 deg RA of node: 240.4429 deg Eccentricity: 0.0010095 Arg of perigee: 294.0361 deg Mean anomaly: 188.9154 deg Mean motion: 14.15017166 rev/day Decay rate: 3.0e-07 rev/day^2 Epoch rev: 27456 Checksum: 295
Satellite: NOAA-12 Catalog number: 21263 Epoch time: 13157.15604742 Element set: 852 Inclination: 098.6970 deg RA of node: 182.6299 deg Eccentricity: 0.0012927 Arg of perigee: 248.9952 deg Mean anomaly: 140.6313 deg Mean motion: 14.25568879 rev/day Decay rate: 8.0e-08 rev/day^2 Epoch rev: 14698 Checksum: 335
Satellite: MET-3/5 Catalog number: 21655 Epoch time: 13157.08272328 Element set: 707 Inclination: 082.5576 deg RA of node: 262.1359 deg Eccentricity: 0.0014243 Arg of perigee: 154.0611 deg Mean anomaly: 206.1228 deg Mean motion: 13.17043039 rev/day Decay rate: 4.21e-06 rev/day^2 Epoch rev: 4847 Checksum: 275
Satellite: MET-2/21 Catalog number: 22782 Epoch time: 13157.84823858 Element set: 758 Inclination: 082.5500 deg RA of node: 111.1251 deg Eccentricity: 0.0021339 Arg of perigee: 235.6328 deg Mean anomaly: 157.0483 deg Mean motion: 13.83706427 rev/day Decay rate: 6.6e-07 rev/day^2 Epoch rev: 99821 Checksum: 309
Satellite: OKEAN-4 Catalog number: 23317 Epoch time: 13157.81493528 Element set: 238 Inclination: 082.5398 deg RA of node: 059.5051 deg Eccentricity: 0.0019622 Arg of perigee: 258.8136 deg Mean anomaly: 166.0425 deg Mean motion: 14.84480185 rev/day Decay rate: 5.01e-06 rev/day^2 Epoch rev: 740 Checksum: 297
Satellite: NOAA-14 Catalog number: 23455 Epoch time: 13157.16813368 Element set: 337 Inclination: 098.8032 deg RA of node: 241.7736 deg Eccentricity: 0.0009761 Arg of perigee: 035.9557 deg Mean anomaly: 353.7200 deg Mean motion: 14.13909317 rev/day Decay rate: -3.8e-07 rev/day^2 Epoch rev: 95081 Checksum: 311
Satellite: NOAA-15 Catalog number: 25338 Epoch time: 13157.05158095 Element set: 756 Inclination: 098.7233 deg RA of node: 147.3175 deg Eccentricity: 0.0011355 Arg of perigee: 155.3410 deg Mean anomaly: 244.9454 deg Mean motion: 14.25226234 rev/day Decay rate: 7.5e-07 rev/day^2 Epoch rev: 78326 Checksum: 301
Satellite: RESURS Catalog number: 25394 Epoch time: 13156.97446498 Element set: 392 Inclination: 098.3604 deg RA of node: 133.3516 deg Eccentricity: 0.0000114 Arg of perigee: 305.9205 deg Mean anomaly: 088.1929 deg Mean motion: 14.24332095 rev/day Decay rate: -2.7e-07 rev/day^2 Epoch rev: 77476 Checksum: 307
Satellite: FENGYUN1 Catalog number: 25730 Epoch time: 13157.88753081 Element set: 889 Inclination: 098.8769 deg RA of node: 117.5256 deg Eccentricity: 0.0027039 Arg of perigee: 076.0651 deg Mean anomaly: 318.1313 deg Mean motion: 14.10534877 rev/day Decay rate: 5.02e-06 rev/day^2 Epoch rev: 72459 Checksum: 323
Satellite: OKEAN-0 Catalog number: 25860 Epoch time: 13157.86136301 Element set: 964 Inclination: 097.9892 deg RA of node: 120.4493 deg Eccentricity: 0.0001791 Arg of perigee: 128.3509 deg Mean anomaly: 265.0920 deg Mean motion: 14.74608655 rev/day Decay rate: 2.61e-06 rev/day^2 Epoch rev: 74683 Checksum: 315
Satellite: NOAA-16 Catalog number: 26536 Epoch time: 13157.14356620 Element set: 237 Inclination: 099.0433 deg RA of node: 209.8001 deg Eccentricity: 0.0011216 Arg of perigee: 162.4739 deg Mean anomaly: 231.6425 deg Mean motion: 14.12881994 rev/day Decay rate: 6.1e-07 rev/day^2 Epoch rev: 65501 Checksum: 281
Satellite: NOAA-17 Catalog number: 27453 Epoch time: 13157.10852177 Element set: 154 Inclination: 098.3119 deg RA of node: 171.7778 deg Eccentricity: 0.0011752 Arg of perigee: 192.2553 deg Mean anomaly: 213.8609 deg Mean motion: 14.24594166 rev/day Decay rate: 4.1e-07 rev/day^2 Epoch rev: 56914 Checksum: 311
Satellite: NOAA-18 Catalog number: 28654 Epoch time: 13157.10561019 Element set: 640 Inclination: 099.0985 deg RA of node: 125.1632 deg Eccentricity: 0.0013445 Arg of perigee: 237.1861 deg Mean anomaly: 253.5744 deg Mean motion: 14.11823170 rev/day Decay rate: 1.34e-06 rev/day^2 Epoch rev: 41449 Checksum: 287
Satellite: NOAA-19 Catalog number: 33591 Epoch time: 13157.12123010 Element set: 823 Inclination: 098.9031 deg RA of node: 099.2732 deg Eccentricity: 0.0015329 Arg of perigee: 101.0530 deg Mean anomaly: 024.7674 deg Mean motion: 14.11508611 rev/day Decay rate: 1.96e-06 rev/day^2 Epoch rev: 22293 Checksum: 265
/EX SB KEPS @ AMSAT $ORB13157.M Orbital Elements 13157.MISC
HR AMSAT ORBITAL ELEMENTS FOR MANNED AND MISCELLANEOUS SATELLITES FROM WA5QGD FORT WORTH,TX June 6, 2013 BID: ORB13157.M TO ALL RADIO AMATEURS BT
Satellite: HUBBLE Catalog number: 20580 Epoch time: 13157.85113492 Element set: 256 Inclination: 028.4708 deg RA of node: 340.5905 deg Eccentricity: 0.0003003 Arg of perigee: 241.8474 deg Mean anomaly: 247.7536 deg Mean motion: 15.03669122 rev/day Decay rate: 1.114e-05 rev/day^2 Epoch rev: 6814 Checksum: 272
Satellite: ISS Catalog number: 25544 Epoch time: 13157.87501205 Element set: 951 Inclination: 051.6472 deg RA of node: 159.4777 deg Eccentricity: 0.0010549 Arg of perigee: 040.9263 deg Mean anomaly: 027.4654 deg Mean motion: 15.50685226 rev/day Decay rate: 5.420e-05 rev/day^2 Epoch rev: 83310 Checksum: 290
Satellite: CO-58 Catalog number: 28895 Epoch time: 13157.12466562 Element set: 493 Inclination: 097.8712 deg RA of node: 012.9885 deg Eccentricity: 0.0019074 Arg of perigee: 115.8811 deg Mean anomaly: 244.4359 deg Mean motion: 14.61118995 rev/day Decay rate: 2.77e-06 rev/day^2 Epoch rev: 40532 Checksum: 339
Satellite: FALCON Catalog number: 30776 Epoch time: 13157.64107566 Element set: 629 Inclination: 035.4312 deg RA of node: 266.9476 deg Eccentricity: 0.0001972 Arg of perigee: 231.4782 deg Mean anomaly: 237.1773 deg Mean motion: 15.10630923 rev/day Decay rate: 2.888e-05 rev/day^2 Epoch rev: 34382 Checksum: 310
Satellite: MAST Catalog number: 31126 Epoch time: 13156.99704919 Element set: 772 Inclination: 097.8802 deg RA of node: 153.5576 deg Eccentricity: 0.0094694 Arg of perigee: 087.9356 deg Mean anomaly: 306.7479 deg Mean motion: 14.54571933 rev/day Decay rate: 3.09e-06 rev/day^2 Epoch rev: 32569 Checksum: 353
Satellite: CAPE1 Catalog number: 31130 Epoch time: 13156.96309597 Element set: 780 Inclination: 097.8971 deg RA of node: 149.8733 deg Eccentricity: 0.0102221 Arg of perigee: 103.3501 deg Mean anomaly: 257.9117 deg Mean motion: 14.53484823 rev/day Decay rate: 4.11e-06 rev/day^2 Epoch rev: 32514 Checksum: 289
Satellite: COMPASS Catalog number: 32787 Epoch time: 13157.15783106 Element set: 642 Inclination: 097.7535 deg RA of node: 216.0063 deg Eccentricity: 0.0013835 Arg of perigee: 345.4837 deg Mean anomaly: 014.5979 deg Mean motion: 14.85493955 rev/day Decay rate: 1.376e-05 rev/day^2 Epoch rev: 27632 Checksum: 328
Satellite: AAUSAT2 Catalog number: 32788 Epoch time: 13157.70860521 Element set: 628 Inclination: 097.7544 deg RA of node: 217.1627 deg Eccentricity: 0.0013324 Arg of perigee: 343.4585 deg Mean anomaly: 016.6194 deg Mean motion: 14.85961607 rev/day Decay rate: 1.065e-05 rev/day^2 Epoch rev: 27644 Checksum: 316
Satellite: DO-64 Catalog number: 32789 Epoch time: 13157.14941912 Element set: 657 Inclination: 097.7696 deg RA of node: 220.3253 deg Eccentricity: 0.0012623 Arg of perigee: 337.7651 deg Mean anomaly: 055.7094 deg Mean motion: 14.88555872 rev/day Decay rate: 1.512e-05 rev/day^2 Epoch rev: 27648 Checksum: 340
Satellite: CO-66 Catalog number: 32791 Epoch time: 13157.74443507 Element set: 627 Inclination: 097.7532 deg RA of node: 215.9552 deg Eccentricity: 0.0014211 Arg of perigee: 344.1763 deg Mean anomaly: 135.2825 deg Mean motion: 14.84638169 rev/day Decay rate: 9.62e-06 rev/day^2 Epoch rev: 27632 Checksum: 322
Satellite: RS-30 Catalog number: 32953 Epoch time: 13157.75818906 Element set: 920 Inclination: 082.5026 deg RA of node: 074.6776 deg Eccentricity: 0.0017308 Arg of perigee: 256.8050 deg Mean anomaly: 103.1103 deg Mean motion: 12.43034458 rev/day Decay rate: 1.0e-07 rev/day^2 Epoch rev: 22861 Checksum: 276
Satellite: METEOR-M Catalog number: 35865 Epoch time: 13157.67055076 Element set: 515 Inclination: 098.6029 deg RA of node: 210.3517 deg Eccentricity: 0.0003296 Arg of perigee: 095.1517 deg Mean anomaly: 265.0044 deg Mean motion: 14.21887485 rev/day Decay rate: -1.8e-07 rev/day^2 Epoch rev: 19297 Checksum: 310
Satellite: RS-38 Catalog number: 35869 Epoch time: 13157.77601441 Element set: 476 Inclination: 098.5969 deg RA of node: 210.3728 deg Eccentricity: 0.0005429 Arg of perigee: 099.5831 deg Mean anomaly: 260.5958 deg Mean motion: 14.22131219 rev/day Decay rate: 2.4e-07 rev/day^2 Epoch rev: 19301 Checksum: 322
Satellite: JUGNU Catalog number: 37839 Epoch time: 13157.01098884 Element set: 401 Inclination: 019.9633 deg RA of node: 014.5027 deg Eccentricity: 0.0018954 Arg of perigee: 160.3168 deg Mean anomaly: 351.6348 deg Mean motion: 14.12159285 rev/day Decay rate: 3.46e-06 rev/day^2 Epoch rev: 8531 Checksum: 299
Satellite: SRMSAT Catalog number: 37841 Epoch time: 13157.81864701 Element set: 404 Inclination: 019.9736 deg RA of node: 021.4588 deg Eccentricity: 0.0011873 Arg of perigee: 122.5456 deg Mean anomaly: 321.4894 deg Mean motion: 14.10228695 rev/day Decay rate: 3.42e-06 rev/day^2 Epoch rev: 8530 Checksum: 294
Satellite: RAX-2 Catalog number: 37853 Epoch time: 13157.12591905 Element set: 520 Inclination: 101.7145 deg RA of node: 005.6347 deg Eccentricity: 0.0235386 Arg of perigee: 059.2363 deg Mean anomaly: 083.8785 deg Mean motion: 14.83602994 rev/day Decay rate: 2.749e-05 rev/day^2 Epoch rev: 8680 Checksum: 321
Satellite: AUBIESAT Catalog number: 37854 Epoch time: 13157.54329544 Element set: 516 Inclination: 101.7173 deg RA of node: 007.0907 deg Eccentricity: 0.0235427 Arg of perigee: 056.6649 deg Mean anomaly: 356.6295 deg Mean motion: 14.84317517 rev/day Decay rate: 2.713e-05 rev/day^2 Epoch rev: 8688 Checksum: 322
